This is the latest recevied weather packets stored in our database for station/object SP3ZBZ-13. If no packets are shown the sender has not sent any weather packets the latest 10 day(s).
| Time | Temp. | Humidity | Pressure | Rain* | Wind** | Luminosity | Snow |
|---|---|---|---|---|---|---|---|
| 1777979928 | 14.44° C | 77% | 1005.5 hPa | - | - | 179 W/m² | - |
| 1777979027 | 15° C | 76% | 1005.8 hPa | - | - | 64 W/m² | - |
| 1777978126 | 15° C | 74% | 1005.8 hPa | - | - | 132 W/m² | - |
| 1777977225 | 15° C | 74% | 1005.7 hPa | - | - | 220 W/m² | - |
| 1777976325 | 14.44° C | 78% | 1005.8 hPa | - | - | 222 W/m² | - |
| 1777975424 | 14.44° C | 78% | 1005.8 hPa | - | - | 79 W/m² | - |
| 1777974522 | 14.44° C | 75% | 1005.9 hPa | - | - | 113 W/m² | - |
| 1777973621 | 15° C | 76% | 1005.8 hPa | - | - | 95 W/m² | - |
| 1777972720 | 14.44° C | 77% | 1005.6 hPa | - | - | 97 W/m² | - |
| 1777971819 | 14.44° C | 75% | 1005.5 hPa | - | - | 107 W/m² | - |
| 1777970918 | 14.44° C | 75% | 1005.3 hPa | - | - | 108 W/m² | - |
| 1777970017 | 13.89° C | 76% | 1005.1 hPa | - | - | 152 W/m² | - |
| 1777969116 | 14.44° C | 76% | 1005.5 hPa | - | - | 89 W/m² | - |
| 1777968215 | 14.44° C | 72% | 1005.8 hPa | - | - | 118 W/m² | - |
| 1777967314 | 14.44° C | 66% | 1006 hPa | - | - | 110 W/m² | - |
| 1777966413 | 14.44° C | 67% | 1006.2 hPa | - | - | 161 W/m² | - |
| 1777965513 | 13.89° C | 66% | 1006.2 hPa | - | - | 205 W/m² | - |
| 1777964612 | 13.33° C | 66% | 1006.2 hPa | - | - | 306 W/m² | - |
| 1777963711 | 12.78° C | 70% | 1006.4 hPa | - | - | 165 W/m² | - |
| 1777962810 | 12.78° C | 73% | 1006.5 hPa | - | - | 95 W/m² | - |
| 1777961909 | 12.22° C | 77% | 1006.4 hPa | - | - | 99 W/m² | - |
| 1777961009 | 11.67° C | 82% | 1006.5 hPa | - | - | 148 W/m² | - |
| 1777960107 | 11.67° C | 82% | 1006.5 hPa | - | - | 147 W/m² | - |
| 1777959206 | 11.11° C | 83% | 1006.6 hPa | - | - | 107 W/m² | - |
| 1777958305 | 11.11° C | 85% | 1006.7 hPa | - | - | 77 W/m² | - |
* Rain since midnight (hover to see other rain measurements)
** Current wind speed in m/s (hover to see current wind gust speed)